カタログに戻る

METEOR 2-8 DEB

LostPO
NORAD 36347·DEBRIS·🇷🇺 Russia

打ち上げ Mar 25, 1982 から Plesetsk Cosmodrome

Loading…

次のパス (今後24時間)

TLE

古いSource: Space-Track

元期: Sep 30, 2023, 05:05 UTC

1 36347U 82025AH  23273.21237363  .00006366  00000-0  38357-2 0  9993
2 36347  82.5312  83.7817 0014057 225.9620 134.0396 14.06506213580044

AllMySatでMETEOR 2-8 DEBをリアルタイム追跡

Download on the App Store